Weather in Ust-Kan

Russia / Altai Republic     50°55′45″N   84°45′44″E
temp.,
°C
wind,
m/s
gust,
m/s
humid.,
%
clouds,
%
prec.,
mm/h
press.,
hPa
HPBL,
m
19 january, wed
wed1901:00−11nw1197100 0.6 102821
04:00−12n119797 0.4 102812
07:00−15s1199100 0.6 10299
10:00−13wsw0097100 0.2 102820
13:00−9ene1192100 0.4 1024202
16:00−8ene0194100 0.7 1022199
19:00−9nne0197100 1.6 102230
22:00−9n1197100 0.9 102341
20 january, thu
thu2001:00−11n2297100 1.6 102457
04:00−11nnw2396100 1.4 1025135
07:00−12nnw2296100 2.8 1028128
10:00−15wnw119861 0.4 103211
13:00−11ne119185 0.4 1031210
16:00−10ene119078 0.0 1031204
19:00−19sw2110057 0.0 10369
22:00−21ssw219982 0.0 10389
21 january, fri
fri2101:00−22s2110080 0.1 103810
04:00−22s2210072 0.0 103812
07:00−23s2210059 0.0 103811
10:00−23s2210070 0.0 103717
13:00−14se229357 0.0 1030128
16:00−12ese11925 0.0 102885
19:00−21sw219959 0.0 10339
22:00−23ssw219881 0.0 10369
22 january, sat
sat2201:00−25s229780 0.0 10379
04:00−24s229777 0.0 103712
07:00−25s229777 0.0 103810
10:00−24s229753 0.0 103918
13:00−14se22879 0.0 1033106
16:00−12se11865 0.0 103176
19:00−21ssw21966 0.0 10389
22:00−23ssw229523 0.0 10409
23 january, sun
sun2301:00−24s229323 0.0 104210
04:00−24s229422 0.0 104210
07:00−25s229517 0.0 104310
10:00−24s229513 0.0 104413
13:00−14se117938 0.0 103797
16:00−11se11815 0.0 103572
19:00−20sw21935 0.0 10419
22:00−22ssw229317 0.0 10439